KVNYKCMA

Guest
Details From KVNY - Van Nuys
To KCMA - CAMARILLO
Flight Number -
Tags generated
Created
Modified
Stats Distance 30 nm / 56 km
Max Altitude 1,200 ft / 366 m
Waypoints 3
Social Downloads 0
Likes 0
Share VATSIM

Download

Looking for another format? Having issues loading an existing format? Contact us
Advertisement - Login to hide

Notes

Basic altitude profile: - Ascent Rate: 2500ft/min - Ascent Speed: 250kts - Cruise Altitude: 35000ft - Cruise Speed: 420kts - Descent Rate: 1500ft/min - Descent Speed: 250kts Options: - Use NATs: yes - Use PACOTS: yes - Use low airways: yes - Use high airways: yes

Route

KVNY ACRAT KCMA

ID Type Via Altitude Latitude Longitude Leg Dist Tot Dist Heading (true) Name
O KVNY APT - 0 ft / 0 m 34.21072˚ -118.48984˚ - 0 nm - Van Nuys
ACRAT FIX - 1,200 ft / 366 m 34.21720˚ -118.97853˚ 24 nm 24 nm 271° / 271° -
O KCMA APT - 0 ft / 0 m 34.21374˚ -119.09384˚ 5 nm 30 nm 268° / 268° CAMARILLO

Altitude Profile

Advertisement - Login to hide

KVNY

Details ICAO KVNY (VNY)
Name Van Nuys
Region United States
Timezone America/Los_Angeles (UTC-7.0)
Stats Elevation 802 ft / 244 m (AMSL)
Location 34.210723° -118.489841°
Runways 2
Magnetic Variation 12.036° E

METAR

KVNY 251151Z AUTO 00000KT 10SM FEW023 BKN033 OVC047 14/10 A3007 RMK AO2 SLP178 T01390100 10156 20139 58001

Decode

TAF

TAF KVNY 251141Z 2512/2612 VRB03KT 6SM -DZ BR SCT015 OVC025 FM251700 16008KT P6SM SCT015 OVC025 FM252000 17012KT P6SM BKN040 FM260300 VRB04KT P6SM OVC040

Decode

Departure Runways

ID Width Length Bearing (true) Bearing (mag) Surface Threshold Offset Overrun Length
16L 75 ft / 23 m 4,021 ft / 1,226 m 175.53° 163.49° Asphalt 1,430 ft / 436 m 0 ft / 0 m
16R 151 ft / 46 m 8,022 ft / 2,445 m 175.54° 163.50° Asphalt 1,430 ft / 436 m 151 ft / 46 m
34L 151 ft / 46 m 8,022 ft / 2,445 m 355.54° 343.50° Asphalt 0 ft / 0 m 151 ft / 46 m
34R 75 ft / 23 m 4,021 ft / 1,226 m 355.53° 343.49° Asphalt 0 ft / 0 m 0 ft / 0 m

KCMA

Details ICAO KCMA
Name CAMARILLO
Region United States
Timezone America/Los_Angeles (UTC-7.0)
Stats Elevation 77 ft / 23 m (AMSL)
Location 34.213745° -119.093836°
Runways 1
Magnetic Variation 12.154° E

METAR

KCMA 251223Z AUTO 26008KT 10SM BKN017 BKN039 OVC055 14/11 A3009 RMK AO2 T01390106

Decode

TAF

TAF KCMA 251141Z 2512/2612 VRB03KT 6SM -DZ BR BKN015 OVC040 FM251700 23007KT P6SM OVC040 FM252000 23012KT P6SM BKN050 FM260400 24006KT P6SM BKN025 FM260900 VRB03KT P6SM BKN012 OVC025

Decode

Destination Runways

ID Width Length Bearing (true) Bearing (mag) Surface Threshold Offset Overrun Length
08 151 ft / 46 m 6,019 ft / 1,835 m 90.56° 78.41° Asphalt 0 ft / 0 m 1,076 ft / 328 m
26 151 ft / 46 m 6,019 ft / 1,835 m 270.57° 258.42° Asphalt 0 ft / 0 m 2,861 ft / 872 m

Popular Alternatives